SCP
0 0 0 0 0 0 0 0 0 0 0 0 0 0 0 0 0 0 0 0 0 0 0 0 0 0 0 0 0 0 0 0 0 0 0 0 0 0 0 0 0 0 0 0
0 0 0 0 0 0 0 0 0 0 0 0 0 0 0 0 0 0 0 0 0 0 0 0 0 0 0 0 0 0 0 0 0 0 0 0 0 0 0 0 0 0 0 0
0 0 0 0 0 0 0 0 0 0 0 0 0 0 0 0 0 0 0 0 0 0 0 0 0 0 0 0 0 0 0 0 0 0 0 0 0 0 0 0 0 0 0 0
0 0 0 0 0 0 0 0 0 0 0 0 0 0 0 0 0 0 0 0 0 0 0 0 0 0 0 0 0 0 0 0 0 0 0 0 0 0 0 0 0 0 0 0
0 0 0 0 0 0 0 0 0 0 0 0 0 0 0 0 0 0 0 0 0 0 0 0 0 0 0 0 0 0 0 0 0 0 0 0 0 0 0 0 0 0 0 0
0 0 0 0 0 0 0 0 0 0 0 0 0 0 0 0 0 0 0 0 0 0 0 0 0 0 0 0 0 0 0 0 0 0 0 0 0 0 0 0 0 0 0 0
0 0 0 0 0 0 0 0 0 0 0 0 0 0 0 0 0 0 0 0 0 0 0 0 0 0 0 0 0 0 0 0 0 0 0 0 0 0 0 0 0 0 0 0
0 0 0 0 0 0 0 0 0 0 0 0 0 0 0 0 0 0 0 0 0 0 0 0 0 0 0 0 0 -0 -0 0 0 0 0 0 0 0 0 0 0 0 0 0
0 0 0 0 0 0 0 0 0 0 0 0 0 0 0 0 0 0 0 0 0 0 0 0 0 0 0 0 0 0 0 0 0 0 0 0 0 0 0 0 0 0 0 0
0 0 0 0 0 0 0 0 0 0 0 0 0 0 0 0 0 0 0 0 0 0 0 0 0 0 0 0 0 0 0 0 0 0 0 0 0 0 0 0 0 0 0 0
0 0 0 0 0 0 0 0 0 0 0 0 0 0 0 0 0 0 0 0 0 0 0 0 0 0 0 0 0 0 0 0 0 0 0 0 0 0 0 0 0 0 0 0
0 0 0 0 0 0 0 0 0 0 0 0 0 0 0 0 0 0 0 0 0 0 0 0 0 0 0 0 0 0 0 0 0 0 0 0 0 0 0 0 0 0 0 0
0 0 0 0 0 0 0 0 0 0 0 0 0 0 0 0 0 0 0 0 0 0 0 0 0 0 0 0 0 0 0 0 0 0 0 0 0 0 0 0 0 0 0 0
0 0 0 0 0 0 0 0 0 0 0 0 0 0 0 0 0 0 0 0 0 0 0 0 0 0 0 0 0 0 0 0 0 0 0 0 0 0 0 0 0 0 0 0
0 0 0 0 0 0 0 0 0 0 0 0 0 0 0 0 0 0 0 0 0 0 0 0 0 0 0 0 0 0 0 0 0 0 0 0 0 0 0 0 0 0 0 0
0 0 0 0 0 0 0 0 0 0 0 0 0 0 0 0 0 0 0 0 0 0 0 0 0 0 0 0 0 0 0 0 0 0 0 0 0 0 0 0 0 0 0 0
0 0 0 0 0 0 0 0 0 0 0 0 0 0 0 0 0 0 0 0 0 0 0 0 0 0 0 0 0 0 0 0 0 0 0 0 0 0 0 0 0 0 0 0
0 0 0 0 0 0 0 0 0 0 0 0 0 0 0 0 0 0 0 0 0 0 0 0 0 0 0 0 0 0 0 0 0 0 0 0 0 0 0 0 0 0 0 0
0 0 0 0 0 0 0 0 0 0 0 0 0 0 0 0 0 0 0 0 0 0 0 0 0 0 0 0 0 0 0 0 0 0 0 0 0 0 0 0 0 0 0 0
0 0 0 0 0 0 0 0 0 0 0 0 0 0 0 0 0 0 0 0 0 0 0 0 0 0 0 0 0 0 0 0 0 0 0 0 0 0 0 0 0 0 0 0
0 0 0 0 0 0 0 0 0 0 0 0 0 0 0 0 0 0 0 0 0 0 0 0 0 0 0 0 0 0 0 0 0 0 0 0 0 0 0 0 0 0 0 0
0 0 0 0 0 0 0 0 0 0 0 0 0 0 0 0 0 0 0 0 0 0 0 0 0 0 0 0 0 0 0 0 0 0 0 0 0 0 0 0 0 0 0 0
0 0 0 0 0 0 0 0 0 0 0 0 0 0 0 0 0 0 0 0 0 0 0 0 0 0 0 0 0 0 0 0 0 0 0 0 0 0 0 0 0 0 0 0
0 0 0 0 0 0 0 0 0 0 0 0 0 0 0 0 0 0 0 0 0 0 0 0 0 0 0 0 0 0 0 0 0 0 0 0 0 0 0 0 0 0 0 0
0 0 0 0 0 0 0 0 0 0 0 0 0 0 0 0 0 0 0 0 0 0 0 0 0 0 0 0 0 0 0 0 0 0 0 0 0 0 0 0 0 0 0 0
0 0 0 0 0 0 0 0 0 0 0 0 0 0 0 0 0 0 0 0 0 0 0 0 0 0 0 0 0 0 0 0 0 0 0 0 0 0 0 0 0 0 0 0
Wind_Speed
3 3 3 7 7 5 2 1 3 3 2 7 8 8 9 9 10 11 10 9 9 7 6 6 7 7 6 6 6 5 5 4 2 1 1 1 1 2 1 1 3 3 3 3
4 3 7 5 4 4 3 2 2 0 3 5 5 7 6 9 9 8 8 8 7 7 7 8 8 8 7 7 6 6 6 5 4 2 0 0 0 1 1 1 1 1 1 2
4 6 3 1 0 2 2 4 3 3 3 4 3 3 4 5 6 7 7 6 7 7 7 7 7 7 7 7 6 5 5 6 5 4 2 1 2 2 2 3 2 3 2 2
4 4 2 1 1 3 2 2 3 3 3 1 1 0 2 3 4 5 5 6 6 5 5 5 6 6 6 5 4 5 5 5 4 3 4 4 2 1 1 2 2 3 3 3
4 2 2 2 2 2 2 3 4 3 3 3 4 2 3 2 2 3 3 3 3 3 4 4 4 4 4 3 3 3 4 4 3 3 4 3 2 0 1 2 3 3 3 3
5 3 1 2 2 1 3 5 5 5 5 3 2 1 3 2 2 1 1 2 2 2 2 2 2 2 3 2 2 1 2 2 2 2 2 2 1 1 2 2 3 2 2 2
7 6 4 1 2 4 5 6 5 6 5 3 1 1 4 2 1 1 1 1 1 1 1 1 2 3 3 2 2 1 0 1 1 1 1 0 0 0 1 2 2 2 2 2
3 6 5 4 1 1 2 6 6 3 4 4 2 1 3 0 1 1 1 1 1 2 3 3 4 4 4 4 3 3 2 2 2 2 2 2 2 2 2 3 2 2 2 3
1 5 4 3 3 2 3 3 4 6 1 1 3 3 2 2 2 1 1 1 2 3 4 4 4 5 5 5 5 4 4 4 5 4 4 4 4 4 4 4 4 3 4 4
3 2 5 5 6 8 5 6 5 4 2 2 3 2 3 4 3 2 2 2 4 5 5 5 5 5 5 5 5 5 5 6 6 6 5 5 5 6 5 5 5 6 5 5
3 2 5 6 6 5 5 5 5 4 3 3 2 3 1 2 2 2 3 3 4 6 6 6 5 5 5 5 5 6 7 7 7 7 7 7 7 6 6 6 7 7 6 6
3 5 2 3 3 2 4 3 3 3 1 2 2 5 2 1 2 2 4 5 5 6 6 6 6 5 6 6 7 7 8 8 9 8 8 8 8 7 7 8 8 7 7 7
4 6 4 7 7 7 6 4 4 5 4 2 0 5 1 3 3 3 4 6 6 6 7 6 6 6 7 7 8 8 8 9 9 8 8 8 9 9 9 10 9 8 8 8
6 6 4 3 3 1 3 5 4 5 3 1 4 6 3 4 5 6 6 7 7 7 7 7 7 8 8 8 9 9 9 9 9 8 8 9 10 10 10 10 9 9 8 8
6 5 2 2 2 3 3 4 4 3 1 3 5 5 5 4 6 6 7 8 8 9 9 9 9 9 9 9 9 9 10 10 9 9 9 11 11 10 10 10 10 10 9 10
5 5 3 2 3 5 4 4 2 1 1 3 3 5 5 5 5 7 8 9 9 10 10 10 10 10 10 10 10 10 10 10 9 9 11 11 10 10 10 10 10 9 9 9
3 5 3 2 2 2 2 2 1 3 4 4 5 6 5 7 8 8 9 9 10 10 10 11 11 10 11 11 10 10 11 10 10 10 11 11 11 11 11 11 9 9 9 9
6 5 4 2 2 2 4 2 2 4 5 4 5 6 7 9 8 8 9 8 10 10 10 11 10 11 11 11 11 11 11 10 11 11 12 11 11 11 10 10 10 10 9 8
4 7 4 3 1 3 3 2 1 3 7 4 5 7 8 7 6 7 7 6 8 10 10 10 11 12 11 12 12 12 12 12 12 12 12 11 11 11 10 10 10 9 8 8
6 6 6 3 1 3 5 3 1 0 6 3 4 7 7 5 5 7 6 7 9 10 9 10 11 11 12 12 12 12 13 12 13 13 12 11 11 11 11 11 10 8 8 9
4 5 4 2 1 6 5 2 2 0 7 4 4 6 5 4 7 9 10 9 9 10 12 12 12 11 12 12 11 12 13 13 13 12 12 11 11 11 11 10 9 8 7 7
4 3 2 3 0 5 2 2 3 7 4 3 4 5 5 7 9 9 9 10 10 11 11 12 11 12 12 12 12 13 14 14 13 12 12 12 11 10 10 8 8 7 7 7
4 6 6 7 7 6 3 5 4 3 3 4 4 5 5 6 7 8 8 9 10 11 11 11 12 13 13 12 11 14 15 13 12 12 11 10 10 9 8 8 8 6 5 5
1 3 3 2 6 5 4 3 2 2 3 4 4 5 4 6 8 9 9 9 10 10 11 11 12 14 14 13 13 13 14 12 11 11 10 9 8 8 7 6 5 5 5 5
4 4 3 4 5 4 4 4 3 2 2 3 3 3 4 6 8 8 9 10 10 10 10 10 12 14 15 15 14 14 13 11 12 11 10 8 7 7 6 5 4 5 5 5
5 7 7 7 7 6 6 3 2 2 2 3 3 5 6 5 7 8 9 9 10 11 12 12 13 14 15 15 15 14 12 11 11 10 8 6 5 5 5 5 5 5 6 7
Wind_Direction
42 64 252 237 207 215 234 248 286 287 82 71 72 64 37 33 47 50 48 48 48 48 40 39 36 41 50 49 53 46 37 11 23 41 59 315 308 277 276 259 239 228 205 204
26 287 248 237 196 195 204 232 260 293 91 103 96 68 46 38 42 48 50 45 39 38 36 37 36 35 37 38 39 43 35 31 28 35 39 210 271 292 283 297 288 294 234 220
213 253 279 260 161 171 209 192 210 189 98 87 110 51 24 28 40 47 46 44 42 43 36 31 33 34 41 43 43 54 52 45 31 23 38 32 24 4 3 353 350 352 345 306
257 271 315 334 276 171 257 240 193 156 123 17 64 230 337 355 17 32 31 28 31 30 32 30 29 25 35 40 44 56 56 57 44 42 55 55 53 28 339 326 333 339 338 313
289 303 335 312 282 198 200 61 81 89 115 73 29 96 292 339 348 357 14 17 21 23 30 26 16 8 11 23 36 47 56 58 53 61 68 69 59 43 321 333 343 345 333 322
267 291 242 261 329 47 116 73 59 52 66 47 343 107 276 268 254 284 347 5 4 18 25 10 348 334 335 349 5 23 55 39 27 51 67 85 72 30 4 340 335 333 321 318
337 338 334 330 4 15 65 74 28 4 9 273 314 130 258 279 287 247 275 297 308 298 273 268 285 292 293 300 305 314 346 324 333 9 12 14 177 182 279 287 307 313 309 300
356 320 324 350 357 296 61 121 146 206 236 282 348 270 278 326 58 49 56 329 318 293 276 263 263 268 272 273 274 274 269 268 268 259 259 258 246 229 236 242 244 260 267 271
187 282 313 1 3 78 87 73 139 129 142 310 300 302 323 69 44 35 16 340 304 291 280 275 273 268 264 266 268 265 265 268 267 258 251 251 248 242 243 247 244 246 250 261
162 276 324 333 29 30 80 129 82 94 129 291 310 322 313 320 316 325 320 302 290 290 287 283 276 273 271 268 273 276 265 261 266 266 259 255 248 245 246 248 251 248 249 251
97 107 334 19 32 351 17 46 80 95 129 148 286 288 328 287 300 298 294 294 291 292 287 285 285 283 281 281 278 275 272 269 268 264 261 262 260 255 250 247 248 248 249 248
92 104 17 327 329 21 72 56 110 114 74 120 185 272 329 325 326 317 305 301 299 296 290 286 284 287 288 280 275 271 269 266 264 262 259 258 260 260 256 254 253 249 249 249
108 85 43 355 348 9 36 28 73 100 95 101 198 276 345 1 350 329 306 301 301 301 296 289 289 287 283 279 276 274 272 268 268 266 263 263 261 257 254 253 253 250 247 250
100 82 125 176 259 344 34 21 46 83 85 280 245 266 306 331 320 312 305 296 296 293 289 286 286 284 282 280 278 278 278 276 276 272 267 264 261 258 255 254 253 250 244 243
85 89 80 68 52 93 78 53 55 82 152 221 264 267 268 281 286 286 288 292 297 295 292 289 286 285 285 286 284 281 280 280 279 275 271 267 265 262 259 256 254 251 246 243
69 108 95 56 64 79 68 38 40 31 282 260 274 273 258 279 290 288 288 290 290 288 287 289 289 289 289 288 287 286 283 281 279 274 272 272 269 265 260 257 253 250 248 245
83 117 112 191 243 0 320 283 284 273 254 234 245 259 287 293 289 282 285 289 286 286 289 292 292 288 287 287 286 284 284 286 284 279 278 276 273 270 265 262 258 252 250 247
120 101 109 113 87 266 252 251 236 255 259 231 243 266 274 267 276 279 278 279 285 289 291 294 294 291 289 288 289 288 290 289 287 284 281 279 276 273 270 263 257 253 250 248
115 123 105 100 125 296 278 257 230 261 279 225 241 272 282 296 318 295 281 283 282 286 289 291 290 292 293 295 295 296 295 292 289 285 281 279 277 275 271 266 260 256 252 250
55 78 100 104 123 258 253 262 290 147 293 251 244 274 289 322 320 288 295 305 297 296 295 295 297 299 300 299 300 300 298 297 293 291 288 286 283 277 272 267 262 256 248 251
35 42 79 118 230 268 253 273 60 72 269 278 257 271 283 266 249 274 300 299 293 293 296 298 302 303 300 302 304 301 300 296 294 294 291 288 285 280 275 269 262 255 249 248
155 135 158 137 67 276 235 140 183 227 252 277 276 275 276 271 279 290 296 296 301 302 302 305 306 305 305 305 306 304 300 298 297 296 293 289 287 285 285 272 265 256 247 245
180 184 183 182 211 240 230 212 225 200 243 270 272 281 285 286 290 295 294 298 301 301 305 307 307 308 310 309 308 305 303 303 303 301 297 294 293 289 284 276 270 263 247 242
229 135 135 241 263 252 243 243 258 231 242 268 276 286 290 288 292 297 299 301 304 305 309 310 312 314 315 315 313 307 307 309 308 305 301 298 296 295 291 281 270 260 248 240
211 159 166 250 272 290 272 241 243 261 276 295 304 294 291 292 296 296 301 304 306 310 309 312 316 315 316 317 316 314 314 315 311 307 303 300 296 295 295 289 275 263 249 236
195 175 173 219 222 197 243 243 217 234 268 286 296 301 302 297 294 299 302 301 306 312 315 318 318 318 318 319 317 317 318 318 314 310 308 302 298 298 295 296 296 271 258 257